Sunbury, PA

2:04 AM EDT on October 01, 2016 (GMT -0400)
KPASUNBU2 | | Change Station

Elev 508 ft 40.86 °N, 76.78 °W | Updated 5 seconds ago

Overcast
Overcast
56.1 °F
Feels Like 56.1 °F
N
0.0
Wind Variable Wind from North
Gusts 0.0 mph

Today
High -- | Low -- °F
--% Chance of Precip.
Yesterday
High -- | Low -- °F
Precip. -- in
Pressure 30.21 in
Visibility 10.0 miles
Clouds Overcast 1500 ft
Dew Point 0 °F
Humidity 10%
Rainfall 0.00 in
Snow Depth Not available.
7:04 AM 6:48 PM
New Moon, 0% visible
METAR KSEG 010553Z AUTO 02003KT 10SM OVC015 14/13 A3021 RMK AO2 SLP229 T01390133 10139 20139 58006
Pressure 30.21 in
Visibility 10.0 miles
Clouds Overcast 1500 ft
Dew Point 0 °F
Humidity 10%
Rainfall 0.00 in
Snow Depth Not available.
7:04 AM 6:48 PM
New Moon, 0% visible
METAR KSEG 010553Z AUTO 02003KT 10SM OVC015 14/13 A3021 RMK AO2 SLP229 T01390133 10139 20139 58006

10-Day Weather Forecast

Almanac

Astronomy

Oct. 01, 2016 Rise Set
Actual Time
Civil Twilight
Nautical Twilight
Astronomical Twilight
Moon
Length of Visible Light
Length of Day
Tomorrow will be .
, % of the Moon is Illuminated

Today's Extremes

State Highs State Lows

Community

WunderPhotos

Upload Photos

1,942,898 photos uploaded!

WunderBlog® & News

Nearby

Air Quality

  Air Quality AQ Index Pollutant
Not available.

Snow Depth

Station Depth Elevation

Earthquake Activity

City Distance Mag. Time & Date
Minimum magnitude displayed is 2.5.

Coastal Water Temperatures

Place Temperature

Stations

Nearby Weather Stations

Station Location Temp. Windchill Dew Point Humidity Wind Precip. Elev Updated Type
                   

Watches & Warnings

There are currently no watches in effect.